Crane Lake, MN

1:41 AM CDT on September 15, 2019 (GMT -0500)
Crane Lake

Weather History for KCDD - August, 2019

Change the Weather History Date:

Friday, August 23, 2019

  Actual Average Record
Temperature  
Mean Temperature 54 °F -  
Max Temperature 71 °F 73 °F 91 °F (2010)
Min Temperature 37 °F 51 °F 35 °F (2004)
Degree Days  
Heating Degree Days 11    
Growing Degree Days 4 (Base 50)    
Moisture  
Dew Point 47 °F    
Average Humidity 78    
Maximum Humidity 100    
Minimum Humidity 43    
Precipitation  
Precipitation 0.00 in - - ()
Sea Level Pressure  
Sea Level Pressure 30.26 in    
Wind  
Wind Speed 1 mph (SSE)    
Max Wind Speed 7 mph    
Max Gust Speed -    
Visibility 10 miles    
Events      
Averages and records for this station are not official NWS values.
T = Trace of Precipitation, MM = Missing Value Source: NWS Daily Summary

Daily Weather History Graph

Daily Weather History Graph

Search for Another Location

Airport or City:

Astronomy

Aug. 23, 2019 Rise Set
Actual Time 6:14 AM CDT 8:09 PM CDT
Civil Twilight 5:41 AM CDT 8:42 PM CDT
Nautical Twilight 5:00 AM CDT 9:23 PM CDT
Astronomical Twilight 4:14 AM CDT 10:08 PM CDT
Moon No Moon Rise 2:28 PM CDT (8/23)
Length of Visible Light 15h 01m
Length of Day
13h 54m
Waning Gibbous, 49% of the Moon is Illuminated
Aug 23
Waning Gibbous
Aug 30
New
Sep 5
First Quarter
Sep 13
Full
Sep 21
Last Quarter

Hourly Weather History & Observations

Time (CDT) Temp. Dew Point Humidity Pressure Visibility Wind Dir Wind Speed Gust Speed Precip Events Conditions
12:26 AM 42.8 °F 42.8 °F 100% 30.21 in 10.0 mi Calm Calm - N/A   Clear
12:45 AM 41.0 °F 41.0 °F 100% 30.21 in 10.0 mi Calm Calm - N/A   Clear
1:05 AM 42.8 °F 41.0 °F 93% 30.21 in 10.0 mi Calm Calm - N/A   Clear
1:26 AM 41.0 °F 41.0 °F 100% 30.22 in 10.0 mi Calm Calm - N/A   Clear
1:46 AM 41.0 °F 39.2 °F 93% 30.22 in 10.0 mi Calm Calm - N/A   Clear
2:06 AM 39.2 °F 39.2 °F 100% 30.22 in 10.0 mi Calm Calm - N/A   Clear
2:26 AM 39.2 °F 39.2 °F 100% 30.21 in 10.0 mi Calm Calm - N/A   Clear
2:46 AM 39.2 °F 39.2 °F 100% 30.22 in 10.0 mi Calm Calm - N/A   Clear
3:06 AM 39.2 °F 39.2 °F 100% 30.22 in 10.0 mi Calm Calm - N/A   Clear
3:45 AM 39.2 °F 39.2 °F 100% 30.25 in 10.0 mi Calm Calm - N/A   Clear
4:06 AM 39.2 °F 39.2 °F 100% 30.25 in 10.0 mi Calm Calm - N/A   Clear
4:25 AM 39.2 °F 39.2 °F 100% 30.26 in 10.0 mi Calm Calm - N/A   Clear
4:45 AM 39.2 °F 39.2 °F 100% 30.26 in 10.0 mi Calm Calm - N/A   Clear
5:05 AM 39.2 °F 39.2 °F 100% 30.26 in 10.0 mi Calm Calm - N/A   Clear
5:26 AM 39.2 °F 39.2 °F 100% 30.26 in 10.0 mi Calm Calm - N/A   Clear
5:45 AM 39.2 °F 39.2 °F 100% 30.28 in 10.0 mi Calm Calm - N/A   Clear
6:26 AM 37.4 °F 37.4 °F 100% 30.30 in 10.0 mi Calm Calm - N/A   Clear
6:46 AM 37.4 °F 37.4 °F 100% 30.30 in 10.0 mi Calm Calm - N/A   Clear
7:05 AM 39.2 °F 39.2 °F 100% 30.31 in 10.0 mi Calm Calm - N/A   Clear
7:26 AM 41.0 °F 41.0 °F 100% 30.31 in 10.0 mi Calm Calm - N/A   Clear
7:45 AM 44.6 °F 44.6 °F 100% 30.31 in 10.0 mi Calm Calm - N/A   Clear
8:06 AM 46.4 °F 46.4 °F 100% 30.31 in 10.0 mi Calm Calm - N/A   Clear
8:26 AM 51.8 °F 51.8 °F 100% 30.31 in 10.0 mi Calm Calm - N/A   Clear
8:46 AM 53.6 °F 51.8 °F 94% 30.31 in 10.0 mi Calm Calm - N/A   Clear
9:06 AM 55.4 °F 53.6 °F 94% 30.30 in 10.0 mi Calm Calm - N/A   Clear
9:25 AM 57.2 °F 53.6 °F 88% 30.30 in 10.0 mi Calm Calm - N/A   Clear
9:45 AM 59.0 °F 53.6 °F 82% 30.29 in 10.0 mi Calm Calm - N/A   Clear
10:06 AM 60.8 °F 51.8 °F 72% 30.29 in 10.0 mi Calm Calm - N/A   Clear
10:26 AM 62.6 °F 51.8 °F 68% 30.29 in 10.0 mi Calm Calm - N/A   Clear
10:46 AM 62.6 °F 50.0 °F 63% 30.28 in 10.0 mi Calm Calm - N/A   Clear
11:26 AM 64.4 °F 48.2 °F 56% 30.27 in 10.0 mi South 5.8 mph - N/A   Clear
11:46 AM 66.2 °F 48.2 °F 52% 30.27 in 10.0 mi SSE 4.6 mph - N/A   Clear
12:05 PM 66.2 °F 50.0 °F 56% 30.27 in 10.0 mi South 4.6 mph - N/A   Scattered Clouds
12:25 PM 66.2 °F 50.0 °F 56% 30.27 in 10.0 mi East 3.5 mph - N/A   Mostly Cloudy
12:46 PM 68.0 °F 50.0 °F 52% 30.27 in 10.0 mi South 4.6 mph - N/A   Mostly Cloudy
1:06 PM 68.0 °F 50.0 °F 52% 30.26 in 10.0 mi South 6.9 mph - N/A   Scattered Clouds
1:26 PM 69.8 °F 48.2 °F 46% 30.26 in 10.0 mi SSE 5.8 mph - N/A   Scattered Clouds
1:45 PM 68.0 °F 48.2 °F 49% 30.26 in 10.0 mi SSE 4.6 mph - N/A   Scattered Clouds
2:05 PM 69.8 °F 50.0 °F 49% 30.26 in 10.0 mi South 3.5 mph - N/A   Scattered Clouds
2:25 PM 69.8 °F 48.2 °F 46% 30.26 in 10.0 mi SSE 5.8 mph - N/A   Clear
2:46 PM 69.8 °F 48.2 °F 46% 30.26 in 10.0 mi Calm Calm - N/A   Clear
3:06 PM 69.8 °F 48.2 °F 46% 30.25 in 10.0 mi SSE 3.5 mph - N/A   Clear
3:26 PM 69.8 °F 48.2 °F 46% 30.25 in 10.0 mi South 3.5 mph - N/A   Clear
3:45 PM 71.6 °F 50.0 °F 46% 30.24 in 10.0 mi SSE 5.8 mph - N/A   Scattered Clouds
4:06 PM 71.6 °F 48.2 °F 43% 30.24 in 10.0 mi SSE 4.6 mph - N/A   Scattered Clouds
4:26 PM 71.6 °F 48.2 °F 43% 30.24 in 10.0 mi Calm Calm - N/A   Scattered Clouds
4:46 PM 71.6 °F 48.2 °F 43% 30.24 in 10.0 mi South 4.6 mph - N/A   Scattered Clouds
5:05 PM 71.6 °F 48.2 °F 43% 30.24 in 10.0 mi SSE 6.9 mph - N/A   Clear
5:25 PM 71.6 °F 51.8 °F 50% 30.23 in 10.0 mi SE 4.6 mph - N/A   Clear
6:05 PM 71.6 °F 50.0 °F 46% 30.24 in 10.0 mi SSE 5.8 mph - N/A   Clear
6:26 PM 69.8 °F 51.8 °F 53% 30.23 in 10.0 mi SE 4.6 mph - N/A   Clear
6:46 PM 69.8 °F 51.8 °F 53% 30.24 in 10.0 mi Calm Calm - N/A   Clear
7:06 PM 68.0 °F 51.8 °F 56% 30.24 in 10.0 mi Calm Calm - N/A   Clear
7:25 PM 64.4 °F 53.6 °F 68% 30.24 in 10.0 mi Calm Calm - N/A   Clear
7:46 PM 60.8 °F 55.4 °F 82% 30.24 in 10.0 mi Calm Calm - N/A   Clear
8:05 PM 57.2 °F 53.6 °F 88% 30.24 in 10.0 mi Calm Calm - N/A   Clear
8:25 PM 53.6 °F 51.8 °F 94% 30.24 in 10.0 mi Calm Calm - N/A   Clear
8:46 PM 53.6 °F 51.8 °F 94% 30.25 in 10.0 mi Calm Calm - N/A   Clear
9:05 PM 51.8 °F 50.0 °F 94% 30.25 in 10.0 mi Calm Calm - N/A   Clear
9:26 PM 51.8 °F 48.2 °F 88% 30.25 in 10.0 mi Calm Calm - N/A   Clear
9:45 PM 48.2 °F 48.2 °F 100% 30.25 in 10.0 mi Calm Calm - N/A   Clear
10:06 PM 48.2 °F 48.2 °F 100% 30.25 in 10.0 mi Calm Calm - N/A   Clear
10:25 PM 48.2 °F 48.2 °F 100% 30.26 in 10.0 mi Calm Calm - N/A   Clear
10:46 PM 50.0 °F 48.2 °F 94% 30.26 in 10.0 mi SSE 3.5 mph - N/A   Clear
11:06 PM 51.8 °F 48.2 °F 88% 30.25 in 10.0 mi Calm Calm - N/A   Clear
11:26 PM 50.0 °F 48.2 °F 94% 30.25 in 10.0 mi Calm Calm - N/A   Clear
11:45 PM 48.2 °F 46.4 °F 93% 30.25 in 10.0 mi Calm Calm - N/A   Clear